Location: ??
(34.9678°N, 135.3699°E)
Time: 04:44:03
(UTC+00:00)

Daily predictions for brighter satellites

Satellite Brightness Start Highest point End
(mag) Time Altitude Azimuth Time Altitude Azimuth Time Altitude Azimuth
Aureole 3 3.8 08:36:58 10° SSE 08:39:55 26° E 08:42:34 10° NE
Cosmos 1758 Rocket 3.5 08:35:36 10° N 08:39:59 74° E 08:44:19 10° SSE
USA 281 3.3 08:34:06 10° SSE 08:40:40 87° ENE 08:47:16 10° NNW
AQUARIUS 4.2 08:36:48 10° SSE 08:41:17 87° WSW 08:45:48 10° NNW
FALCON 9 DEB 4.2 08:38:29 10° WSW 08:41:34 40° NW 08:44:39 10° NNE
Cosmos 2219 4.5 08:37:39 10° N 08:41:54 21° ENE 08:46:07 10° ESE
Okean-O 3.9 08:40:59 10° ESE 08:44:13 20° ENE 08:47:27 10° NNE
Cosmos 2228 3.0 08:40:02 10° S 08:44:16 90° WNW 08:48:32 10° N
Cosmos 1606 Rocket 3.6 08:42:37 10° S 08:46:57 89° WNW 08:51:21 10° N
BREEZE-M DEB (TANK) 3.8 08:45:12 10° SSW 08:48:06 21° SE 08:49:38 12° E
Cosmos 1302 Rocket 4.1 08:43:58 10° S 08:49:06 59° ESE 08:54:17 10° NNE
CZ-2C R/B 4.3 08:45:14 10° ESE 08:49:42 24° ENE 08:54:07 10° NNE
ERS-2 3.8 08:53:04 10° N 08:56:25 36° WNW 08:59:46 10° SW
CZ-4B R/B 4.2 08:51:15 10° S 08:56:44 52° W 09:02:10 10° NNW
Meteor 2-10 Rocket 4.4 08:53:34 10° SSE 08:58:04 28° E 09:02:27 10° NE
Cosmos 1340 3.7 08:55:00 10° NNE 08:58:06 24° ENE 09:01:11 10° SE
SKYMED 2 3.5 08:54:29 10° NNE 08:58:50 73° ESE 09:03:08 10° S
Atlas Centaur 2 3.7 08:53:37 10° SW 09:01:31 47° SSE 09:08:18 15° E
SAR-Lupe-4 4.0 08:58:28 10° N 09:02:01 64° WNW 09:05:33 10° SSW
ASTRO E2 3.8 08:59:17 10° SW 09:02:48 31° SSE 09:05:25 15° ESE
Cosmos 44 4.2 08:58:42 10° SW 09:02:56 45° WNW 09:07:24 10° NNE
Cosmos 1939 Rocket 2.9 08:59:57 10° SSE 09:03:52 55° ENE 09:07:44 10° N
Helios 1A Rocket 3.5 09:00:31 10° SE 09:04:18 36° ENE 09:08:05 10° N
YAOGAN 3 4.5 09:00:58 10° SSE 09:05:17 70° ENE 09:09:38 10° N
MOS 1 Rocket 4.3 09:02:24 10° NE 09:06:27 27° E 09:10:40 10° SSE
OAO 3 Rocket 3.2 09:01:40 10° W 09:06:30 81° S 09:10:06 17° ESE
Milstar 3 3.3 09:03:18 10° WSW 09:10:10 48° S 09:15:27 16° ESE
Cosmos 1656 3.6 09:06:00 10° SSW 09:11:28 71° ESE 09:17:04 10° NNE
Cosmos 1689 Rocket 2.4 09:08:59 10° N 09:11:51 64° WNW 09:14:40 10° SSW
Cosmos 1455 3.2 09:11:48 10° SE 09:14:52 24° E 09:15:05 24° E
Timation 2 Rocket 4.2 09:08:30 10° NNW 09:15:06 61° ENE 09:21:51 10° SE
Cosmos 2058 Rocket 3.1 09:12:46 10° S 09:17:14 86° W 09:21:45 10° N
Cosmos 2227 Rocket 3.0 09:13:03 10° N 09:17:59 30° ENE 09:20:47 20° ESE
GPS 2-04 Rocket1 4.1 09:14:57 10° SSW 09:18:22 26° SSE 09:19:52 21° ESE
CSL-04 Rocket 4.5 09:15:38 10° SE 09:20:23 30° ENE 09:25:07 10° N
Cosmos 1953 Rocket 3.8 09:17:40 10° N 09:22:05 74° W 09:26:31 10° S
PSLV R/B 4.3 09:19:07 10° N 09:23:16 68° WNW 09:27:21 10° SSW
OAO 1 Rocket 4.5 09:18:28 10° WSW 09:23:48 72° SSE 09:26:45 27° E
CZ-4 R/B 1.4 09:21:15 10° SSE 09:25:04 50° ENE 09:28:50 10° N
Cosmos 1400 Rocket 3.5 09:25:11 10° SSW 09:29:13 57° W 09:33:17 10° N
Cosmos 2058 4.0 09:25:48 10° NNE 09:28:17 26° NE 09:28:17 26° NE
Cosmos 1992 Rocket 4.0 09:24:52 10° S 09:29:54 53° ESE 09:34:58 10° NNE
Cosmos 1697 Rocket 2.8 09:24:52 10° S 09:30:16 52° ESE 09:35:08 13° NNE
IUS-26 SRM-1 4.3 09:26:43 10° WSW 09:30:20 19° SSW 09:31:34 15° SSE
H-2A R/B 2.6 09:26:13 11° SE 09:30:57 36° ENE 09:35:53 10° N
Cosmos 1553 Rocket 4.0 09:26:35 10° S 09:32:58 88° E 09:39:19 10° N
SL-08 ROCKET BODY 4.5 09:28:02 10° N 09:34:01 55° E 09:40:03 10° SSE
NOSS 3-3 (A) 3.7 09:28:46 10° SSW 09:34:19 68° ESE 09:39:22 15° NE
NOSS 3-3 (C) 3.7 09:28:50 10° SSW 09:34:27 68° ESE 09:39:29 16° NE
BREEZE-M TANK 4.0 09:31:12 10° WNW 09:36:51 27° N 09:38:14 21° NNE
IRS-P2 Rocket 4.5 09:32:56 10° SSE 09:38:08 85° ENE 09:43:25 10° NNW
Cosmos 44 Rocket 3.8 09:35:19 10° S 09:39:34 36° ESE 09:39:34 36° ESE
Geosat 4.3 09:43:53 10° NNE 09:48:52 65° WNW 09:53:49 10° SW
Meteor 2-15 Rocket 4.3 09:45:49 10° S 09:51:56 78° E 09:58:05 10° N
Cosmos 1980 Rocket 2.6 09:47:06 10° S 09:51:42 39° ESE 09:51:42 39° ESE
Cosmos 1892 2.7 09:51:22 10° N 09:55:16 82° W 09:57:35 23° S
YAOGAN 1 2.6 09:52:21 10° S 09:56:39 77° WSW 10:01:00 10° NNW
Cosmos 2297 Rocket 2.1 09:52:34 10° NNW 09:58:16 83° ENE 10:01:46 24° SSE
Cosmos 1315 Rocket 2.7 09:54:44 10° S 09:58:39 82° W 09:59:27 55° N
CSL-04 Debris 4.0 09:53:35 10° SSE 09:58:57 72° ENE 10:04:23 10° N
OAO 2 Rocket 3.1 09:56:03 10° WSW 10:01:01 82° S 10:01:32 70° ESE
Cosmos 2360 4.1 09:57:57 10° SSW 10:03:40 78° ESE 10:06:09 35° NNE
Cosmos 1346 Rocket 4.1 09:59:44 10° N 10:01:50 30° N 10:01:50 30° N
Cosmos 1812 Rocket 3.4 09:59:45 10° S 10:03:56 79° SSE 10:03:56 79° SSE
Cosmos 1745 Rocket 3.9 09:58:56 10° N 10:05:16 86° E 10:11:37 10° S
SeaSat 1 3.7 10:10:13 27° NNE 10:10:13 27° NNE 10:12:48 10° N
Delta 2 Rocket 4.1 10:06:41 10° W 10:12:04 66° SSW 10:12:46 60° SSE
Cosmos 2278 3.6 10:13:18 10° SSW 10:18:26 69° SSE 10:18:26 69° SSE
Okean-O 4.4 10:16:33 10° SSW 10:20:27 30° W 10:24:23 10° NW
Cosmos 2219 4.0 10:20:47 10° NNW 10:26:20 51° WSW 10:30:23 18° S
Cosmos 968 Rocket 3.7 10:23:22 10° NNW 10:28:31 64° WSW 10:28:51 62° SW
CZ-2C R/B 4.3 10:23:41 10° S 10:29:12 44° W 10:34:41 10° NNW
Cosmos 1709 Rocket 4.1 10:28:51 10° N 10:34:13 64° N 10:34:13 64° N
Cosmos 2082 4.5 10:30:24 10° NNW 10:34:09 42° N 10:34:09 42° N
Cosmos 2315 Rocket 4.1 10:38:17 10° SSW 10:44:27 71° W 10:50:39 10° N
ARGOS 3.8 10:45:44 51° NW 10:45:44 51° NW 10:50:03 10° NNW
Atlas Centaur 2 3.1 10:42:40 10° WSW 10:50:54 64° S 10:50:54 64° S
Cosmos 2227 Rocket 3.7 10:56:59 10° NW 11:01:57 32° WSW 11:02:42 31° WSW
H-2A R/B 4.1 11:06:51 13° SW 11:10:22 24° W 11:14:44 10° NW
H-2A R/B (2) 3.8 10:41:34 10° W 11:18:37 61° SSW 11:18:37 61° SSW
